DW9750 Weather Reports


time (UTC)temp
C
wind
direction
speed
KPH
gust
KPH
rain 1hr
cm
rain 24hr
cm
rain mn
cm
humidity
%
barometer
mb
20260906193035 30 8 3.2 14.5 0.00 0.00 0.00 62 1011.0
20260906191536 32 348 4.8 14.5 0.00 0.00 0.00 54 1010.7
20260906190032 33 113 3.2 12.9 0.00 0.00 0.00 48 1010.6
20260906184542 33 182 3.2 9.7 0.00 0.00 0.00 50 1010.8
20260906183035 33 208 4.8 12.9 0.00 0.00 0.00 52 1011.0
20260906181550 32 303 4.8 9.7 0.00 0.00 0.00 51 1011.2
20260906180029 32 81 3.2 11.3 0.00 0.00 0.00 51 1011.4
20260906174528 33 259 1.6 11.3 0.00 0.00 0.00 50 1011.8
20260906173028 33 177 6.4 12.9 0.00 0.00 0.00 49 1012.1
20260906171529 33 90 3.2 11.3 0.00 0.00 0.00 49 1012.2
20260906170022 31 187 3.2 12.9 0.00 0.00 0.00 56 1012.3
20260906164519 31 270 4.8 12.9 0.00 0.00 0.00 55 1012.4
20260906163022 31 227 3.2 8.0 0.00 0.00 0.00 56 1012.5
20260906161512 31 33 4.8 8.0 0.00 0.00 0.00 57 1012.5
20260906160009 30 106 1.6 11.3 0.00 0.00 0.00 60 1012.5
20260906154506 30 209 3.2 8.0 0.00 0.00 0.00 63 1012.4
20260906153003 28 124 3.2 8.0 0.00 0.00 0.00 65 1012.3
20260906151600 28 336 3.2 6.4 0.00 0.00 0.00 71 1012.2
20260906150058 28 73 1.6 8.0 0.00 0.00 0.00 72 1012.3
20260906144558 27 315 1.6 6.4 0.00 0.00 0.00 73 1012.3
20260906143056 27 156 3.2 6.4 0.00 0.00 0.00 75 1012.3
20260906141553 26 56 1.6 9.7 0.00 0.00 0.00 78 1012.3
20260906134603 26 123 0.0 6.4 0.00 0.00 0.00 79 1012.1
20260906133049 25 97 1.6 6.4 0.00 0.00 0.00 81 1011.9
20260906131547 23 118 0.0 3.2 0.00 0.00 0.00 83 1011.9
20260906130052 23 30 0.0 0.0 0.00 0.00 0.00 85 1011.7
20260906124545 22 29 0.0 0.0 0.00 0.00 0.00 85 1011.4
20260906123044 22 145 0.0 0.0 0.00 0.00 0.00 85 1011.1
20260906121548 22 145 0.0 0.0 0.00 0.00 0.00 85 1011.1
20260906120042 22 145 0.0 0.0 0.00 0.00 0.00 84 1010.9
20260906114545 22 145 0.0 0.0 0.00 0.00 0.00 85 1010.8
20260906113043 22 145 0.0 0.0 0.00 0.00 0.00 85 1010.5
20260906111540 22 77 0.0 0.0 0.00 0.00 0.00 85 1010.2
20260906110038 22 77 0.0 0.0 0.00 0.00 0.00 83 1010.2
20260906104539 22 77 0.0 0.0 0.00 0.00 0.00 83 1010.2
20260906103037 22 77 0.0 0.0 0.00 0.00 0.00 83 1010.1
20260906101534 23 77 0.0 0.0 0.00 0.00 0.00 83 1010.0
20260906100033 23 77 0.0 0.0 0.00 0.00 0.00 81 1009.9
20260906094536 23 77 0.0 0.0 0.00 0.00 0.00 81 1009.9
20260906093032 23 77 0.0 3.2 0.00 0.00 0.00 80 1010.0
20260906091534 23 73 1.6 3.2 0.00 0.00 0.00 80 1010.2
20260906090026 23 77 0.0 3.2 0.00 0.00 0.00 78 1010.2
20260906084530 24 83 0.0 0.0 0.00 0.00 0.00 77 1010.3
20260906083022 25 83 0.0 0.0 0.00 0.00 0.00 75 1010.2
20260906081523 25 83 0.0 4.8 0.00 0.00 0.00 74 1010.4
20260906080016 25 116 0.0 3.2 0.00 0.00 0.00 73 1010.6
20260906074513 25 194 0.0 6.4 0.00 0.00 0.00 72 1010.8
20260906073011 25 139 0.0 1.6 0.00 0.00 0.00 72 1011.1
20260906071508 26 192 0.0 1.6 0.00 0.00 0.00 71 1011.5
20260906070006 26 134 0.0 4.8 0.00 0.00 0.00 70 1011.2
20260906064511 26 87 0.0 6.4 0.00 0.00 0.00 70 1011.2
20260906063004 26 158 0.0 0.0 0.00 0.00 0.00 72 1011.3
20260906061502 26 164 0.0 3.2 0.00 0.00 0.00 72 1011.4
20260906060150 26 105 0.0 4.8 0.00 0.00 0.00 71 1011.6
20260906054611 27 114 0.0 1.6 0.00 0.00 0.00 70 1011.5
20260906053057 27 115 1.6 6.4 0.00 0.00 0.00 69 1011.7
20260906051553 27 94 3.2 8.0 0.00 0.00 0.00 68 1011.7
20260906050105 27 79 3.2 9.7 0.00 0.00 0.00 66 1011.5
20260906044549 27 104 1.6 8.0 0.00 0.00 0.00 64 1011.4
20260906043049 27 73 1.6 4.8 0.00 0.00 0.00 62 1011.5
20260906041547 27 109 3.2 8.0 0.00 0.00 0.00 61 1011.5
20260906040046 28 126 1.6 9.7 0.00 0.00 0.00 59 1011.2
20260906034556 27 104 3.2 11.3 0.00 0.00 0.00 59 1011.0
20260906033045 27 115 0.0 6.4 0.00 0.00 0.00 58 1010.9
20260906031608 27 72 3.2 8.0 0.00 0.00 0.00 59 1010.5
20260906030045 27 66 0.0 1.6 0.00 0.00 0.00 59 1010.2
20260906024553 27 66 0.0 0.0 0.00 0.00 0.00 58 1010.0
20260906023104 28 66 0.0 0.0 0.00 0.00 0.00 56 1009.6
20260906021541 28 66 0.0 0.0 0.00 0.00 0.00 54 1009.3
20260906020049 28 66 0.0 0.0 0.00 0.00 0.00 53 1009.2
20260906014541 29 69 0.0 0.0 0.00 0.00 0.00 52 1009.1
20260906013041 30 75 1.6 4.8 0.00 0.00 0.00 50 1009.0
20260906011540 30 99 3.2 4.8 0.00 0.00 0.00 50 1008.9
20260906010039 31 92 1.6 6.4 0.00 0.00 0.00 49 1008.8
20260906004546 31 76 3.2 8.0 0.00 0.00 0.00 48 1008.7
20260906003047 32 140 3.2 14.5 0.00 0.00 0.00 47 1008.7
20260906001543 32 68 3.2 14.5 0.00 0.00 0.00 46 1008.6
20260906000036 33 71 8.0 16.1 0.00 0.00 0.00 46 1008.5
20260905234536 33 92 3.2 9.7 0.00 0.00 0.00 45 1008.5
20260905233043 33 95 4.8 12.9 0.00 0.00 0.00 44 1008.6
20260905231536 33 179 6.4 19.3 0.00 0.00 0.00 44 1008.5
20260905230031 34 96 6.4 16.1 0.00 0.00 0.00 45 1008.5
20260905224530 34 102 6.4 16.1 0.00 0.00 0.00 45 1008.3
20260905223028 35 123 6.4 12.9 0.00 0.00 0.00 45 1008.6
20260905221526 34 125 6.4 14.5 0.00 0.00 0.00 46 1008.5
20260905220025 33 80 3.2 12.9 0.00 0.00 0.00 46 1008.5
20260905214523 33 151 4.8 12.9 0.00 0.00 0.00 45 1008.6
20260905213022 34 120 6.4 12.9 0.00 0.00 0.00 44 1008.7
20260905211518 35 200 3.2 11.3 0.00 0.00 0.00 45 1008.9
20260905210016 34 111 4.8 14.5 0.00 0.00 0.00 47 1009.1
20260905204515 33 175 3.2 14.5 0.00 0.00 0.00 48 1009.4
20260905203113 35 133 4.8 11.3 0.00 0.00 0.00 45 1009.6
20260905201512 34 107 4.8 12.9 0.00 0.00 0.00 46 1009.8
20260905200007 34 104 4.8 12.9 0.00 0.00 0.00 48 1010.0
20260905194504 35 105 4.8 11.3 0.00 0.00 0.00 43 1010.3